Cincinnati, OH

7:54 PM EDT on May 27, 2018 (GMT -0400)
Cincinnati Municipal-Lunken

Weather History for KLUK - June, 2013

Change the Weather History Date:

Monday, June 17, 2013

  Actual Average Record
Temperature  
Mean Temperature 74 °F -  
Max Temperature 87 °F 82 °F 96 °F (1952)
Min Temperature 64 °F 62 °F 46 °F (1980)
Cooling Degree Days 9    
Growing Degree Days 24 (Base 50)    
Moisture  
Dew Point 66 °F    
Average Humidity 85    
Maximum Humidity 100    
Minimum Humidity 49    
Precipitation  
Precipitation 0.00 in - - ()
Sea Level Pressure  
Sea Level Pressure 29.96 in    
Wind  
Wind Speed 1 mph (SSW)    
Max Wind Speed 12 mph    
Max Gust Speed 22 mph    
Visibility 6 miles    
Events Rain , Thunderstorm    
Averages and records for this station are not official NWS values.
T = Trace of Precipitation, MM = Missing Value Source: NWS Daily Summary

Daily Weather History Graph

Daily Weather History Graph

Search for Another Location

Airport or City:

Astronomy

Jun. 17, 2013 Rise Set
Actual Time 6:11 AM EDT 9:06 PM EDT
Civil Twilight 5:39 AM EDT 9:38 PM EDT
Nautical Twilight 4:58 AM EDT 10:19 PM EDT
Astronomical Twilight 4:11 AM EDT 11:05 PM EDT
Moon 2:46 PM EDT (6/17) 1:44 AM EDT (6/17)
Length of Visible Light 15h 59m
Length of Day
14h 54m
First Quarter, 60% of the Moon is Illuminated
Jun 17
First Quarter
Jun 23
Full
Jun 30
Last Quarter
Jul 8
New
Jul 15
First Quarter

Hourly Weather History & Observations

Time (EDT) Temp. Heat Index Dew Point Humidity Pressure Visibility Wind Dir Wind Speed Gust Speed Precip Events Conditions
12:53 AM 66.9 °F - 66.0 °F 97% 29.99 in 7.0 mi Calm Calm - N/A   Clear
1:53 AM 64.9 °F - 64.9 °F 100% 29.98 in 4.0 mi Calm Calm - N/A   Clear
2:02 AM 64.4 °F - 64.4 °F 100% 29.99 in 2.5 mi Calm Calm - N/A   Clear
2:10 AM 64.4 °F - 64.4 °F 100% 29.99 in 4.0 mi Calm Calm - N/A   Clear
2:23 AM 64.4 °F - 64.4 °F 100% 29.99 in 2.0 mi Calm Calm - N/A   Clear
2:34 AM 64.4 °F - 64.4 °F 100% 29.99 in 0.8 mi Calm Calm - N/A   Clear
2:44 AM 64.4 °F - 64.4 °F 100% 29.99 in 2.0 mi Calm Calm - N/A   Clear
2:53 AM 64.0 °F - 64.0 °F 100% 29.98 in 1.2 mi Calm Calm - N/A   Partly Cloudy
3:02 AM 64.4 °F - 64.4 °F 100% 29.99 in 3.0 mi Calm Calm - N/A   Clear
3:53 AM 64.9 °F - 64.0 °F 97% 29.98 in 5.0 mi Calm Calm - N/A   Overcast
4:31 AM 64.4 °F - 64.4 °F 100% 29.99 in 5.0 mi Calm Calm - 0.00 in   Overcast
4:43 AM 64.4 °F - 64.4 °F 100% 29.99 in 6.0 mi Calm Calm - 0.00 in   Overcast
4:53 AM 64.9 °F - 64.9 °F 100% 29.98 in 6.0 mi Calm Calm - 0.00 in   Overcast
5:53 AM 64.9 °F - 64.9 °F 100% 29.98 in 4.0 mi SSW 3.5 mph - N/A   Overcast
6:53 AM 64.0 °F - 64.0 °F 100% 29.99 in 5.0 mi South 3.5 mph - N/A   Partly Cloudy
7:53 AM 66.9 °F - 66.0 °F 97% 29.99 in 5.0 mi Calm Calm - N/A   Partly Cloudy
7:57 AM 68.0 °F - 66.2 °F 94% 30.00 in 5.0 mi Calm Calm - N/A   Overcast
8:53 AM 69.1 °F - 66.9 °F 93% 29.99 in 6.0 mi Calm Calm - N/A   Overcast
9:53 AM 72.0 °F - 66.9 °F 84% 29.99 in 4.0 mi Calm Calm - N/A   Haze
10:20 AM 73.4 °F - 68.0 °F 83% 30.00 in 5.0 mi Calm Calm - N/A   Haze
10:53 AM 75.9 °F - 68.0 °F 76% 29.99 in 6.0 mi Calm Calm - N/A   Haze
11:00 AM 75.2 °F - 69.8 °F 83% 30.00 in 6.0 mi Calm Calm - N/A   Haze
11:53 AM 78.1 °F - 69.1 °F 74% 29.98 in 9.0 mi Calm Calm - N/A   Scattered Clouds
12:33 PM 80.6 °F 83.9 °F 69.8 °F 70% 29.98 in 9.0 mi Calm Calm - N/A   Mostly Cloudy
12:53 PM 80.1 °F 82.9 °F 69.1 °F 69% 29.97 in 10.0 mi Calm Calm - N/A   Partly Cloudy
1:53 PM 82.0 °F 84.9 °F 68.0 °F 62% 29.96 in 10.0 mi Calm Calm - N/A   Scattered Clouds
2:53 PM 84.9 °F 88.2 °F 68.0 °F 57% 29.94 in 10.0 mi Variable 3.5 mph - N/A   Scattered Clouds
3:53 PM 84.9 °F 86.6 °F 64.9 °F 51% 29.92 in 10.0 mi Calm Calm - N/A   Clear
4:53 PM 84.9 °F 87.6 °F 66.9 °F 55% 29.89 in 10.0 mi SE 4.6 mph - N/A   Partly Cloudy
5:53 PM 84.9 °F 86.1 °F 64.0 °F 49% 29.87 in 10.0 mi Calm Calm - N/A   Clear
6:53 PM 81.0 °F 85.2 °F 72.0 °F 74% 29.88 in 9.0 mi Calm Calm - N/A   Clear
7:53 PM 78.1 °F - 72.0 °F 81% 29.89 in 7.0 mi Calm Calm - N/A   Clear
8:53 PM 75.0 °F - 70.0 °F 84% 29.89 in 8.0 mi Calm Calm - N/A   Scattered Clouds
9:53 PM 75.0 °F - 69.1 °F 82% 29.91 in 10.0 mi Calm Calm - N/A   Scattered Clouds
10:53 PM 75.0 °F - 66.9 °F 76% 29.91 in 9.0 mi SW 11.5 mph 21.9 mph N/A   Mostly Cloudy
11:31 PM 73.4 °F - 64.4 °F 73% 29.92 in 10.0 mi WSW 6.9 mph - 0.00 in Rain , Thunderstorm Light Rain
11:53 PM 73.9 °F - 63.0 °F 68% 29.92 in 10.0 mi SW 4.6 mph - 0.00 in Thunderstorm Mostly Cloudy